FW7863 Weather Reports


Display with metric or nautical units.
time (UTC)temp
F
wind
direction
speed
MPH
gust
MPH
rain 1hr
in
rain 24hr
in
rain mn
in
humidity
%
barometer
mb
20260506172555 66 237 1.0 3.0 0.00 0.00 0.00 79 1008.0
20260506172045 67 231 2.0 5.0 0.00 0.00 0.00 78 1008.1
20260506171543 67 264 3.0 5.0 0.00 0.00 0.00 78 1008.3
20260506171041 67 257 4.0 7.0 0.00 0.00 0.00 78 1008.2
20260506170538 67 268 2.0 2.0 0.00 0.00 0.00 78 1008.2
20260506170035 67 205 2.0 5.0 0.00 0.00 0.00 77 1008.3
20260506165533 68 87 1.0 3.0 0.00 0.00 0.00 77 1008.3
20260506165029 68 225 4.0 6.0 0.00 0.00 0.00 76 1008.3
20260506164526 67 94 1.0 5.0 0.00 0.00 0.00 78 1008.4
20260506164024 67 154 0.0 2.0 0.00 0.00 0.00 78 1008.1
20260506163520 68 139 1.0 3.0 0.00 0.00 0.00 78 1008.4
20260506163015 67 152 0.0 2.0 0.00 0.00 0.00 81 1008.3
20260506162512 66 158 3.0 6.0 0.00 0.00 0.00 80 1008.6
20260506162009 67 159 1.0 3.0 0.00 0.00 0.00 77 1009.0
20260506161507 68 135 2.0 5.0 0.00 0.00 0.00 74 1009.3
20260506161004 68 134 2.0 6.0 0.00 0.00 0.00 74 1009.5
20260506160502 69 169 3.0 8.0 0.00 0.00 0.00 71 1009.5
20260506155958 70 187 3.0 5.0 0.00 0.00 0.00 69 1009.2
20260506155456 70 266 2.0 6.0 0.00 0.00 0.00 69 1009.3
20260506153629 70 189 2.0 6.0 0.00 0.00 0.00 65 1009.1
20260506153126 70 227 1.0 2.0 0.00 0.00 0.00 66 1009.3
20260506152623 70 134 1.0 3.0 0.00 0.00 0.00 66 1009.1
20260506152120 70 140 1.0 1.0 0.00 0.00 0.00 66 1009.1
20260506151619 70 155 1.0 2.0 0.00 0.00 0.00 65 1009.1
20260506151115 70 183 2.0 2.0 0.00 0.00 0.00 65 1009.4
20260506150612 70 188 3.0 6.0 0.00 0.00 0.00 64 1009.2
20260506150109 70 161 2.0 6.0 0.00 0.00 0.00 65 1009.1
20260506145606 70 260 5.0 8.0 0.00 0.00 0.00 64 1009.4
20260506145103 70 297 5.0 6.0 0.00 0.00 0.00 65 1009.6
20260506144600 69 141 2.0 8.0 0.00 0.00 0.00 65 1009.3
20260506144056 69 198 1.0 8.0 0.00 0.00 0.00 65 1009.5
20260506143555 69 151 0.0 2.0 0.00 0.00 0.00 66 1009.4
20260506143052 69 157 1.0 2.0 0.00 0.00 0.00 66 1009.4
20260506142550 69 170 0.0 2.0 0.00 0.00 0.00 67 1009.4
20260506142048 69 243 2.0 5.0 0.00 0.00 0.00 65 1009.3
20260506141545 69 192 1.0 6.0 0.00 0.00 0.00 65 1009.5
20260506141044 69 213 2.0 2.0 0.00 0.00 0.00 65 1009.5
20260506140541 70 171 1.0 2.0 0.00 0.00 0.00 64 1009.4
20260506140038 70 165 0.0 3.0 0.00 0.00 0.00 64 1009.4
20260506135535 70 177 0.0 3.0 0.00 0.00 0.00 64 1009.3
20260506135031 69 150 1.0 3.0 0.00 0.00 0.00 64 1009.2
20260506134527 69 101 0.0 5.0 0.00 0.00 0.00 65 1009.1
20260506134023 69 115 4.0 6.0 0.00 0.00 0.00 65 1009.5
20260506133521 68 157 4.0 6.0 0.00 0.00 0.00 65 1009.1
20260506133018 68 103 3.0 7.0 0.00 0.00 0.00 65 1009.0
20260506132515 68 143 2.0 7.0 0.00 0.00 0.00 66 1009.4
20260506132012 68 228 4.0 6.0 0.00 0.00 0.00 66 1009.3
20260506131509 69 48 1.0 3.0 0.00 0.00 0.00 66 1009.2
20260506131006 69 246 2.0 3.0 0.00 0.00 0.00 66 1009.3
20260506130502 68 98 1.0 5.0 0.00 0.00 0.00 67 1009.6
20260506130000 68 186 1.0 5.0 0.00 0.00 0.00 66 1009.8
20260506125458 68 167 1.0 3.0 0.00 0.00 0.00 66 1009.5
20260506124955 68 149 0.0 2.0 0.00 0.00 0.00 66 1009.7
20260506124453 68 161 2.0 6.0 0.00 0.00 0.00 66 1009.5
20260506123951 68 150 2.0 9.0 0.00 0.00 0.00 66 1009.7
20260506123449 68 263 2.0 5.0 0.00 0.00 0.00 66 1009.5
20260506122946 68 248 2.0 7.0 0.00 0.00 0.00 67 1009.6
20260506122443 68 142 3.0 7.0 0.00 0.00 0.00 66 1009.4
20260506121941 68 161 1.0 5.0 0.00 0.00 0.00 67 1009.7
20260506121438 68 161 1.0 6.0 0.00 0.00 0.00 68 1009.5
20260506120935 68 7 2.0 6.0 0.00 0.00 0.00 68 1009.6
20260506120432 68 31 1.0 2.0 0.00 0.00 0.00 67 1009.6
20260506115929 67 91 2.0 6.0 0.00 0.00 0.00 69 1009.7
20260506115427 66 79 3.0 6.0 0.00 0.00 0.00 72 1009.6
20260506114925 67 113 3.0 5.0 0.00 0.00 0.00 71 1009.3
20260506114422 67 141 0.0 3.0 0.00 0.00 0.00 71 1009.3
20260506113921 67 144 1.0 3.0 0.00 0.00 0.00 70 1009.6
20260506113418 66 141 1.0 6.0 0.00 0.00 0.00 72 1009.8
20260506112915 66 119 1.0 3.0 0.00 0.00 0.00 72 1009.5
20260506112413 66 148 1.0 3.0 0.00 0.00 0.00 72 1009.3
20260506111910 66 128 2.0 2.0 0.00 0.00 0.00 72 1009.5
20260506111408 66 165 0.0 3.0 0.00 0.00 0.00 74 1009.4
20260506110905 66 23 2.0 2.0 0.00 0.00 0.00 73 1009.7
20260506110402 65 311 1.0 2.0 0.00 0.00 0.00 74 1009.7
20260506105858 64 159 1.0 3.0 0.00 0.00 0.00 74 1009.7
20260506105355 64 186 1.0 3.0 0.00 0.00 0.00 76 1009.7
20260506104853 63 149 1.0 2.0 0.00 0.00 0.00 77 1009.7
20260506104350 63 156 1.0 2.0 0.00 0.00 0.00 79 1009.7
20260506103848 63 106 0.0 2.0 0.00 0.00 0.00 78 1009.6
20260506103345 63 169 1.0 2.0 0.00 0.00 0.00 78 1009.5
20260506102842 63 140 0.0 3.0 0.00 0.00 0.00 78 1009.5
20260506102340 63 294 3.0 3.0 0.00 0.00 0.00 79 1009.7
20260506101837 63 129 2.0 2.0 0.00 0.00 0.00 78 1009.6
20260506101333 63 162 0.0 5.0 0.00 0.00 0.00 79 1009.9
20260506100831 62 180 0.0 9.0 0.00 0.00 0.00 79 1009.8
20260506100329 63 119 0.0 2.0 0.00 0.00 0.00 81 1009.5
20260506095827 63 148 1.0 2.0 0.00 0.00 0.00 80 1009.5
20260506095324 63 150 1.0 3.0 0.00 0.00 0.00 79 1009.3
20260506094821 63 95 0.0 2.0 0.00 0.00 0.00 81 1009.5
20260506094320 63 156 0.0 1.0 0.00 0.00 0.00 80 1009.1
20260506093817 63 173 2.0 5.0 0.00 0.00 0.00 79 1009.3
20260506093314 63 197 2.0 5.0 0.00 0.00 0.00 80 1009.2
20260506092812 63 139 1.0 2.0 0.00 0.00 0.00 79 1009.1
20260506092310 63 91 2.0 7.0 0.00 0.00 0.00 80 1009.4
20260506091807 63 171 2.0 2.0 0.00 0.00 0.00 80 1009.3
20260506091304 63 173 1.0 2.0 0.00 0.00 0.00 80 1009.4
20260506090802 64 152 1.0 5.0 0.00 0.00 0.00 80 1009.4
20260506090259 64 147 1.0 2.0 0.00 0.00 0.00 80 1009.6
20260506085755 63 145 1.0 3.0 0.00 0.00 0.00 79 1009.3
20260506085251 63 134 1.0 2.0 0.00 0.00 0.00 80 1009.6
20260506084748 64 202 1.0 2.0 0.00 0.00 0.00 80 1009.5
20260506084244 63 169 4.0 5.0 0.00 0.00 0.00 81 1009.5
20260506083742 64 78 0.0 1.0 0.00 0.00 0.00 80 1009.6
20260506083240 64 248 2.0 2.0 0.00 0.00 0.00 80 1009.6
20260506082737 64 225 1.0 3.0 0.00 0.00 0.00 79 1009.9
20260506082232 64 167 0.0 3.0 0.00 0.00 0.00 79 1009.7
20260506081730 64 170 2.0 8.0 0.00 0.00 0.00 79 1009.8
20260506081227 64 163 1.0 2.0 0.00 0.00 0.00 80 1009.8
20260506080725 64 178 0.0 2.0 0.00 0.00 0.00 80 1009.9
20260506080221 64 136 2.0 3.0 0.00 0.00 0.00 80 1009.8
20260506073206 64 146 1.0 2.0 0.00 0.00 0.00 80 1009.5
20260506072702 64 145 1.0 1.0 0.00 0.00 0.00 80 1009.6
20260506072159 64 156 2.0 3.0 0.00 0.00 0.00 79 1009.8
20260506071657 64 206 1.0 3.0 0.00 0.00 0.00 79 1009.8
20260506071155 64 162 1.0 2.0 0.00 0.00 0.00 79 1009.8
20260506070652 64 98 1.0 2.0 0.00 0.00 0.00 79 1009.6
20260506070148 64 149 0.0 5.0 0.00 0.00 0.00 79 1009.7
20260506062126 65 163 3.0 3.0 0.00 0.00 0.00 78 1009.9
20260506061621 65 217 3.0 5.0 0.00 0.00 0.00 79 1010.0
20260506061120 65 136 1.0 2.0 0.00 0.00 0.00 78 1010.0
20260506060618 65 131 0.0 2.0 0.00 0.00 0.00 78 1009.8
20260506060114 65 246 2.0 2.0 0.00 0.00 0.00 79 1010.0
20260506051046 66 166 1.0 3.0 0.00 0.00 0.00 76 1010.3
20260506050544 66 131 3.0 6.0 0.00 0.00 0.00 75 1010.4
20260506045035 66 156 1.0 1.0 0.00 0.00 0.00 76 1010.5
20260506044533 66 122 2.0 3.0 0.00 0.00 0.00 76 1010.5
20260506044029 66 146 1.0 3.0 0.00 0.00 0.00 75 1010.6
20260506043526 66 131 4.0 7.0 0.00 0.00 0.00 75 1010.7
20260506043025 66 115 1.0 2.0 0.00 0.00 0.00 75 1010.5
20260506042523 66 139 2.0 6.0 0.00 0.00 0.00 75 1010.6
20260506042021 66 152 0.0 1.0 0.00 0.00 0.00 75 1010.6
20260506041519 66 145 0.0 3.0 0.00 0.00 0.00 74 1010.4
20260506041016 66 169 2.0 3.0 0.00 0.00 0.00 74 1010.3
20260506040514 66 154 1.0 2.0 0.00 0.00 0.00 74 1010.2
20260506040009 66 155 1.0 3.0 0.00 0.00 0.00 74 1010.3
20260506035506 66 153 0.0 2.0 0.00 0.00 0.00 74 1010.7
20260506035003 67 324 1.0 2.0 0.00 0.00 0.00 73 1010.5
20260506034501 66 145 0.0 3.0 0.00 0.00 0.00 73 1010.7
20260506033957 66 150 1.0 2.0 0.00 0.00 0.00 73 1010.4
20260506033455 67 152 1.0 2.0 0.00 0.00 0.00 72 1010.3
20260506032951 67 354 2.0 7.0 0.00 0.00 0.00 72 1010.4
20260506032449 66 179 1.0 2.0 0.00 0.00 0.00 72 1010.5
20260506031945 67 149 0.0 2.0 0.00 0.00 0.00 72 1010.5
20260506031443 67 140 1.0 2.0 0.00 0.00 0.00 72 1010.5
20260506030940 67 146 0.0 2.0 0.00 0.00 0.00 71 1010.5
20260506030438 67 146 1.0 2.0 0.00 0.00 0.00 70 1010.5
20260506025934 67 180 1.0 2.0 0.00 0.00 0.00 70 1010.6
20260506025431 67 266 2.0 3.0 0.00 0.00 0.00 70 1010.6
20260506024928 67 183 1.0 2.0 0.00 0.00 0.00 70 1010.6
20260506024425 68 160 1.0 3.0 0.00 0.00 0.00 69 1010.7
20260506023921 68 176 0.0 6.0 0.00 0.00 0.00 68 1010.7
20260506023418 68 150 1.0 5.0 0.00 0.00 0.00 68 1010.6
20260506022915 68 219 0.0 3.0 0.00 0.00 0.00 68 1010.7
20260506022413 68 142 0.0 2.0 0.00 0.00 0.00 67 1010.6
20260506021910 68 128 2.0 3.0 0.00 0.00 0.00 67 1010.6
20260506021407 68 181 2.0 3.0 0.00 0.00 0.00 66 1010.7
20260506020903 68 119 0.0 5.0 0.00 0.00 0.00 66 1010.6
20260506020402 68 97 1.0 3.0 0.00 0.00 0.00 65 1010.7
20260506015859 69 133 2.0 3.0 0.00 0.00 0.00 65 1010.5
20260506015357 69 87 2.0 3.0 0.00 0.00 0.00 64 1010.7
20260506014853 69 179 1.0 3.0 0.00 0.00 0.00 63 1010.7
20260506014350 69 215 2.0 6.0 0.00 0.00 0.00 62 1010.6
20260506013847 69 139 1.0 2.0 0.00 0.00 0.00 62 1010.4
20260506013344 69 166 1.0 5.0 0.00 0.00 0.00 62 1010.5
20260506012840 69 168 2.0 5.0 0.00 0.00 0.00 61 1010.3
20260506012337 69 228 2.0 5.0 0.00 0.00 0.00 62 1010.2
20260506011835 69 178 1.0 5.0 0.00 0.00 0.00 62 1010.1
20260506011331 69 155 0.0 3.0 0.00 0.00 0.00 62 1010.2
20260506010828 69 149 1.0 2.0 0.00 0.00 0.00 62 1009.9
20260506010326 69 161 0.0 2.0 0.00 0.00 0.00 62 1009.9
20260506005823 69 149 1.0 5.0 0.00 0.00 0.00 62 1010.0
20260506005320 69 159 1.0 3.0 0.00 0.00 0.00 61 1010.2
20260506004816 69 175 1.0 2.0 0.00 0.00 0.00 62 1010.3
20260506004314 70 201 1.0 2.0 0.00 0.00 0.00 62 1010.0
20260506003809 70 171 1.0 3.0 0.00 0.00 0.00 61 1009.9
20260506003306 70 154 1.0 1.0 0.00 0.00 0.00 62 1009.6
20260506002802 70 172 2.0 2.0 0.00 0.00 0.00 61 1009.6
20260506002259 70 155 0.0 3.0 0.00 0.00 0.00 61 1009.5
20260506001754 71 102 1.0 2.0 0.00 0.00 0.00 61 1009.7
20260506001252 71 163 1.0 2.0 0.00 0.00 0.00 61 1009.6
20260506000749 71 148 1.0 2.0 0.00 0.00 0.00 60 1009.4
20260506000247 71 185 3.0 3.0 0.00 0.00 0.00 59 1009.4
20260505235743 72 119 1.0 5.0 0.00 0.00 0.00 57 1009.7
20260505235241 72 128 0.0 1.0 0.00 0.00 0.00 56 1009.2
20260505234738 73 145 0.0 2.0 0.00 0.00 0.00 55 1009.5
20260505234235 73 132 2.0 5.0 0.00 0.00 0.00 53 1009.4
20260505233731 73 206 2.0 2.0 0.00 0.00 0.00 53 1009.4
20260505233230 74 123 0.0 1.0 0.00 0.00 0.00 51 1009.2
20260505232726 74 151 0.0 6.0 0.00 0.00 0.00 50 1009.1
20260505232224 75 161 3.0 5.0 0.00 0.00 0.00 48 1009.1
20260505231721 75 147 1.0 2.0 0.00 0.00 0.00 48 1009.1
20260505231220 76 157 1.0 3.0 0.00 0.00 0.00 46 1009.0
20260505230717 77 147 1.0 3.0 0.00 0.00 0.00 45 1009.1
20260505230213 78 167 1.0 2.0 0.00 0.00 0.00 43 1009.1
20260505225710 79 260 0.0 5.0 0.00 0.00 0.00 41 1009.0
20260505225207 79 253 3.0 5.0 0.00 0.00 0.00 39 1009.0
20260505224703 79 201 3.0 7.0 0.00 0.00 0.00 39 1009.0
20260505224201 79 157 1.0 1.0 0.00 0.00 0.00 40 1009.1
20260505223658 79 172 5.0 6.0 0.00 0.00 0.00 40 1009.0
20260505223154 79 258 3.0 5.0 0.00 0.00 0.00 39 1009.1
20260505222650 79 137 1.0 5.0 0.00 0.00 0.00 39 1009.0
20260505222146 79 120 2.0 6.0 0.00 0.00 0.00 39 1008.8
20260505221643 80 149 2.0 8.0 0.00 0.00 0.00 39 1009.0
20260505221140 81 159 2.0 5.0 0.00 0.00 0.00 38 1009.0
20260505220638 81 43 2.0 5.0 0.00 0.00 0.00 37 1008.9
20260505220135 81 177 5.0 7.0 0.00 0.00 0.00 37 1008.7
20260505215632 82 136 2.0 2.0 0.00 0.00 0.00 38 1008.8
20260505215130 82 127 5.0 7.0 0.00 0.00 0.00 37 1008.8
20260505214628 82 145 1.0 8.0 0.00 0.00 0.00 37 1008.9
20260505214124 81 169 2.0 3.0 0.00 0.00 0.00 37 1008.8
20260505213622 81 297 4.0 18.0 0.00 0.00 0.00 37 1008.8
20260505213119 82 159 1.0 7.0 0.00 0.00 0.00 37 1008.4
20260505212615 82 174 3.0 5.0 0.00 0.00 0.00 37 1008.7
20260505212113 82 221 3.0 7.0 0.00 0.00 0.00 35 1008.8
20260505211609 83 226 3.0 5.0 0.00 0.00 0.00 35 1008.6
20260505211107 83 236 4.0 9.0 0.00 0.00 0.00 34 1008.7
20260505210603 83 216 2.0 5.0 0.00 0.00 0.00 36 1008.5
20260505210100 83 329 2.0 3.0 0.00 0.00 0.00 34 1008.7
20260505205558 83 154 3.0 6.0 0.00 0.00 0.00 35 1008.4
20260505205055 83 142 3.0 8.0 0.00 0.00 0.00 33 1008.2
20260505204552 83 214 5.0 11.0 0.00 0.00 0.00 33 1008.3
20260505204049 83 268 5.0 8.0 0.00 0.00 0.00 33 1008.4
20260505203546 84 75 2.0 6.0 0.00 0.00 0.00 33 1008.6
20260505203043 84 238 4.0 6.0 0.00 0.00 0.00 32 1008.1
20260505202539 84 185 3.0 3.0 0.00 0.00 0.00 33 1008.5
20260505202035 84 291 6.0 13.0 0.00 0.00 0.00 32 1008.1
20260505201533 84 152 1.0 6.0 0.00 0.00 0.00 34 1008.5
20260505201030 85 157 3.0 5.0 0.00 0.00 0.00 33 1008.4
20260505200528 85 160 1.0 2.0 0.00 0.00 0.00 34 1008.5
20260505200025 84 263 2.0 6.0 0.00 0.00 0.00 34 1008.5
20260505195520 84 196 3.0 6.0 0.00 0.00 0.00 34 1008.6
20260505195018 84 207 3.0 8.0 0.00 0.00 0.00 35 1008.6
20260505194515 83 164 4.0 10.0 0.00 0.00 0.00 35 1008.6
20260505194010 84 169 4.0 8.0 0.00 0.00 0.00 34 1008.4
20260505193508 84 135 2.0 11.0 0.00 0.00 0.00 37 1008.6
20260505193005 84 99 3.0 7.0 0.00 0.00 0.00 35 1008.9
20260505192503 85 194 4.0 7.0 0.00 0.00 0.00 36 1008.8
20260505192000 85 265 4.0 6.0 0.00 0.00 0.00 37 1008.7
20260505191459 84 139 4.0 7.0 0.00 0.00 0.00 38 1008.8
20260505190956 83 155 2.0 11.0 0.00 0.00 0.00 37 1008.9
20260505190451 84 119 3.0 6.0 0.00 0.00 0.00 37 1009.0
20260505185946 84 155 1.0 5.0 0.00 0.00 0.00 38 1009.0
20260505185444 84 305 3.0 8.0 0.00 0.00 0.00 36 1009.2
20260505184940 84 155 2.0 5.0 0.00 0.00 0.00 38 1009.3
20260505184437 84 44 2.0 9.0 0.00 0.00 0.00 37 1009.4
20260505183933 83 221 3.0 5.0 0.00 0.00 0.00 39 1009.5
20260505183431 84 81 4.0 7.0 0.00 0.00 0.00 37 1009.5
20260505182927 84 112 3.0 6.0 0.00 0.00 0.00 39 1009.5
20260505182424 83 40 3.0 7.0 0.00 0.00 0.00 38 1009.6
20260505181920 83 78 3.0 16.0 0.00 0.00 0.00 37 1009.6
20260505181418 83 205 2.0 8.0 0.00 0.00 0.00 41 1009.4
20260505180915 83 105 3.0 5.0 0.00 0.00 0.00 40 1009.5
20260505180411 83 206 1.0 6.0 0.00 0.00 0.00 39 1009.7
20260505175908 84 251 1.0 8.0 0.00 0.00 0.00 39 1010.0
20260505175404 83 129 1.0 5.0 0.00 0.00 0.00 40 1010.0
20260505174900 83 182 1.0 2.0 0.00 0.00 0.00 40 1009.9
20260505174358 83 150 1.0 6.0 0.00 0.00 0.00 41 1010.0
20260505173854 83 157 2.0 3.0 0.00 0.00 0.00 39 1009.9
20260505173350 82 161 1.0 5.0 0.00 0.00 0.00 40 1010.3
20260505172847 82 272 3.0 6.0 0.00 0.00 0.00 40 1010.1